Location: ??
(34.7707°N, 135.6540°E)
Time: 18:06:17
(UTC+00:00)

Cosmos 1356 - Pass Details

Date: 09 April 2020
Orbit: 444 x 447 km, 81.1° (Epoch: 05 June)

Event Time Altitude Azimuth Distance (km) Brightness Sun altitude
Rises 18:54:23 0° 345° (NNW) 2,447 7.3 -19.9°
Reaches altitude 10° 18:56:30 10° 340° (NNW) 1,571 6.2 -19.6°
Enters shadow 18:58:43 34° 317° (NW) 754 4.3 -19.1°
